User: anonymous   Login
Location: Oshawa
(43.9000°N, 78.8670°W)
Time: 10:57:46
(UTC-04:00)
Language:

Iridium 98 - Orbit

View from above orbital plane
View from above orbital plane
View from above satellite
View from above satellite

Ground track
Ground track

The orbit data is extracted from the following two-line orbital elements,

1 27451U 02031B   17147.80979799 +.00000167 +00000-0 +52431-4 0  9996
2 27451 086.3979 030.7107 0002572 076.5175 327.6197 14.34215524788366
Epoch (UTC): 27 May 2017 19:26:06
Eccentricity: 0.0002572
inclination: 86.3979°
perigee height: 776 km
apogee height: 779 km
right ascension of ascending node: 30.7107°
argument of perigee: 76.5175°
revolutions per day: 14.34215524
mean anomaly at epoch: 327.6197°
orbit number at epoch: 78836

The dashed part of the orbit path shows where the satellite is in the earth's shadow,  

DLR